Year,Month,Day,Hour,Minute,Value (Times are PST for temperature in C)
2017,06,23,00,00,13.30
2017,06,23,00,01,13.30
2017,06,23,00,02,13.30
2017,06,23,00,03,13.30
2017,06,23,00,04,13.30
2017,06,23,00,05,13.30
2017,06,23,00,06,13.30
2017,06,23,00,07,13.30
2017,06,23,00,08,13.20
2017,06,23,00,09,13.20
2017,06,23,00,10,13.20
2017,06,23,00,11,13.10
2017,06,23,00,12,13.10
2017,06,23,00,13,13.00
2017,06,23,00,14,13.00
2017,06,23,00,15,13.00
2017,06,23,00,16,12.90
2017,06,23,00,17,12.90
2017,06,23,00,18,12.90
2017,06,23,00,19,12.90
2017,06,23,00,20,12.80
2017,06,23,00,21,12.80
2017,06,23,00,22,12.80
2017,06,23,00,23,12.80
2017,06,23,00,24,12.80
2017,06,23,00,25,12.80
2017,06,23,00,26,12.70
2017,06,23,00,27,12.70
2017,06,23,00,28,12.60
2017,06,23,00,29,12.60
2017,06,23,00,30,12.60
2017,06,23,00,31,12.50
2017,06,23,00,32,12.50
2017,06,23,00,33,12.50
2017,06,23,00,34,12.40
2017,06,23,00,35,12.40
2017,06,23,00,36,12.40
2017,06,23,00,37,12.30
2017,06,23,00,38,12.30
2017,06,23,00,39,12.30
2017,06,23,00,40,12.30
2017,06,23,00,41,12.30
2017,06,23,00,42,12.30
2017,06,23,00,43,12.20
2017,06,23,00,44,12.20
2017,06,23,00,45,12.20
2017,06,23,00,46,12.20
2017,06,23,00,47,12.20
2017,06,23,00,48,12.10
2017,06,23,00,49,12.10
2017,06,23,00,50,12.20
2017,06,23,00,51,12.20
2017,06,23,00,52,12.20
2017,06,23,00,53,12.20
2017,06,23,00,54,12.20
2017,06,23,00,55,12.10
2017,06,23,00,56,12.10
2017,06,23,00,57,12.10
2017,06,23,00,58,12.00
2017,06,23,00,59,12.00
2017,06,23,01,00,12.00
2017,06,23,01,01,11.90
2017,06,23,01,02,11.90
2017,06,23,01,03,11.90
2017,06,23,01,04,11.80
2017,06,23,01,05,11.80
2017,06,23,01,06,11.80
2017,06,23,01,07,11.80
2017,06,23,01,08,11.80
2017,06,23,01,09,11.80
2017,06,23,01,10,11.80
2017,06,23,01,11,11.70
2017,06,23,01,12,11.70
2017,06,23,01,13,11.70
2017,06,23,01,14,11.70
2017,06,23,01,15,11.60
2017,06,23,01,16,11.60
2017,06,23,01,17,11.60
2017,06,23,01,18,11.60
2017,06,23,01,19,11.60
2017,06,23,01,20,11.60
2017,06,23,01,21,11.60
2017,06,23,01,22,11.60
2017,06,23,01,23,11.60
2017,06,23,01,24,11.50
2017,06,23,01,25,11.40
2017,06,23,01,26,11.40
2017,06,23,01,27,11.40
2017,06,23,01,28,11.40
2017,06,23,01,29,11.40
2017,06,23,01,30,11.30
2017,06,23,01,31,11.30
2017,06,23,01,32,11.30
2017,06,23,01,33,11.30
2017,06,23,01,34,11.30
2017,06,23,01,35,11.30
2017,06,23,01,36,11.20
2017,06,23,01,37,11.20
2017,06,23,01,38,11.20
2017,06,23,01,39,11.20
2017,06,23,01,40,11.20
2017,06,23,01,41,11.20
2017,06,23,01,42,11.20
2017,06,23,01,43,11.20
2017,06,23,01,44,11.10
2017,06,23,01,45,11.10
2017,06,23,01,46,11.10
2017,06,23,01,47,11.10
2017,06,23,01,48,11.10
2017,06,23,01,49,11.10
2017,06,23,01,50,11.10
2017,06,23,01,51,11.10
2017,06,23,01,52,11.10
2017,06,23,01,53,11.10
2017,06,23,01,54,11.10
2017,06,23,01,55,11.10
2017,06,23,01,56,11.10
2017,06,23,01,57,11.10
2017,06,23,01,58,11.00
2017,06,23,01,59,10.90
2017,06,23,02,00,10.90
2017,06,23,02,01,10.90
2017,06,23,02,02,10.90
2017,06,23,02,03,10.90
2017,06,23,02,04,10.90
2017,06,23,02,05,10.90
2017,06,23,02,06,10.80
2017,06,23,02,07,10.80
2017,06,23,02,08,10.80
2017,06,23,02,09,10.80
2017,06,23,02,10,10.70
2017,06,23,02,11,10.70
2017,06,23,02,12,10.70
2017,06,23,02,13,10.70
2017,06,23,02,14,10.70
2017,06,23,02,15,10.70
2017,06,23,02,16,10.70
2017,06,23,02,17,10.70
2017,06,23,02,18,10.70
2017,06,23,02,19,10.70
2017,06,23,02,20,10.70
2017,06,23,02,21,10.70
2017,06,23,02,22,10.70
2017,06,23,02,23,10.70
2017,06,23,02,24,10.60
2017,06,23,02,25,10.60
2017,06,23,02,26,10.60
2017,06,23,02,27,10.60
2017,06,23,02,28,10.60
2017,06,23,02,29,10.60
2017,06,23,02,30,10.60
2017,06,23,02,31,10.60
2017,06,23,02,32,10.60
2017,06,23,02,33,10.60
2017,06,23,02,34,10.60
2017,06,23,02,35,10.60
2017,06,23,02,36,10.60
2017,06,23,02,37,10.60
2017,06,23,02,38,10.60
2017,06,23,02,39,10.60
2017,06,23,02,40,10.60
2017,06,23,02,41,10.60
2017,06,23,02,42,10.60
2017,06,23,02,43,10.60
2017,06,23,02,44,10.60
2017,06,23,02,45,10.60
2017,06,23,02,46,10.60
2017,06,23,02,47,10.60
2017,06,23,02,48,10.60
2017,06,23,02,49,10.60
2017,06,23,02,50,10.60
2017,06,23,02,51,10.50
2017,06,23,02,52,10.40
2017,06,23,02,53,10.40
2017,06,23,02,54,10.40
2017,06,23,02,55,10.40
2017,06,23,02,56,10.40
2017,06,23,02,57,10.40
2017,06,23,02,58,10.40
2017,06,23,02,59,10.40
2017,06,23,03,00,10.40
2017,06,23,03,01,10.40
2017,06,23,03,02,10.40
2017,06,23,03,03,10.40
2017,06,23,03,04,10.40
2017,06,23,03,05,10.40
2017,06,23,03,06,10.40
2017,06,23,03,07,10.40
2017,06,23,03,08,10.40
2017,06,23,03,09,10.40
2017,06,23,03,10,10.40
2017,06,23,03,11,10.40
2017,06,23,03,12,10.40
2017,06,23,03,13,10.30
2017,06,23,03,14,10.30
2017,06,23,03,15,10.30
2017,06,23,03,16,10.30
2017,06,23,03,17,10.30
2017,06,23,03,18,10.20
2017,06,23,03,19,10.20
2017,06,23,03,20,10.20
2017,06,23,03,21,10.20
2017,06,23,03,22,10.20
2017,06,23,03,23,10.20
2017,06,23,03,24,10.10
2017,06,23,03,25,10.10
2017,06,23,03,26,10.10
2017,06,23,03,27,10.10
2017,06,23,03,28,10.10
2017,06,23,03,29,10.10
2017,06,23,03,30,10.10
2017,06,23,03,31,10.10
2017,06,23,03,32,10.10
2017,06,23,03,33,10.10
2017,06,23,03,34,10.10
2017,06,23,03,35,10.10
2017,06,23,03,36,10.10
2017,06,23,03,37,10.10
2017,06,23,03,38,10.10
2017,06,23,03,39,10.10
2017,06,23,03,40,10.10
2017,06,23,03,41,10.00
2017,06,23,03,42,9.90
2017,06,23,03,43,9.90
2017,06,23,03,44,9.90
2017,06,23,03,45,9.90
2017,06,23,03,46,9.90
2017,06,23,03,47,9.90
2017,06,23,03,48,9.90
2017,06,23,03,49,9.90
2017,06,23,03,50,9.90
2017,06,23,03,51,9.90
2017,06,23,03,52,9.90
2017,06,23,03,53,9.90
2017,06,23,03,54,9.90
2017,06,23,03,55,9.90
2017,06,23,03,56,9.90
2017,06,23,03,57,9.90
2017,06,23,03,58,9.90
2017,06,23,03,59,9.90
2017,06,23,04,00,9.90
2017,06,23,04,01,9.90
2017,06,23,04,02,9.90
2017,06,23,04,03,9.90
2017,06,23,04,04,9.90
2017,06,23,04,05,9.90
2017,06,23,04,06,9.90
2017,06,23,04,07,9.90
2017,06,23,04,08,9.90
2017,06,23,04,09,9.90
2017,06,23,04,10,9.90
2017,06,23,04,11,9.90
2017,06,23,04,12,9.90
2017,06,23,04,13,9.90
2017,06,23,04,14,9.90
2017,06,23,04,15,9.90
2017,06,23,04,16,9.90
2017,06,23,04,17,9.90
2017,06,23,04,18,9.90
2017,06,23,04,19,9.90
2017,06,23,04,20,9.90
2017,06,23,04,21,9.90
2017,06,23,04,22,9.90
2017,06,23,04,23,9.90
2017,06,23,04,24,9.90
2017,06,23,04,25,9.90
2017,06,23,04,26,9.90
2017,06,23,04,27,9.90
2017,06,23,04,28,9.90
2017,06,23,04,29,9.90
2017,06,23,04,30,9.90
2017,06,23,04,31,9.80
2017,06,23,04,32,9.80
2017,06,23,04,33,9.80
2017,06,23,04,34,9.80
2017,06,23,04,35,9.70
2017,06,23,04,36,9.70
2017,06,23,04,37,9.70
2017,06,23,04,38,9.70
2017,06,23,04,39,9.70
2017,06,23,04,40,9.70
2017,06,23,04,41,9.70
2017,06,23,04,42,9.70
2017,06,23,04,43,9.70
2017,06,23,04,44,9.70
2017,06,23,04,45,9.60
2017,06,23,04,46,9.60
2017,06,23,04,47,9.60
2017,06,23,04,48,9.60
2017,06,23,04,49,9.60
2017,06,23,04,50,9.60
2017,06,23,04,51,9.60
2017,06,23,04,52,9.60
2017,06,23,04,53,9.70
2017,06,23,04,54,9.70
2017,06,23,04,55,9.70
2017,06,23,04,56,9.60
2017,06,23,04,57,9.60
2017,06,23,04,58,9.70
2017,06,23,04,59,9.70
2017,06,23,05,00,9.70
2017,06,23,05,01,9.70
2017,06,23,05,02,9.70
2017,06,23,05,03,9.80
2017,06,23,05,04,9.80
2017,06,23,05,05,9.80
2017,06,23,05,06,9.90
2017,06,23,05,07,9.90
2017,06,23,05,08,9.90
2017,06,23,05,09,9.90
2017,06,23,05,10,9.90
2017,06,23,05,11,9.90
2017,06,23,05,12,9.90
2017,06,23,05,13,9.90
2017,06,23,05,14,9.90
2017,06,23,05,15,9.80
2017,06,23,05,16,9.80
2017,06,23,05,17,9.80
2017,06,23,05,18,9.80
2017,06,23,05,19,9.80
2017,06,23,05,20,9.80
2017,06,23,05,21,9.80
2017,06,23,05,22,9.80
2017,06,23,05,23,9.80
2017,06,23,05,24,9.80
2017,06,23,05,25,9.80
2017,06,23,05,26,9.80
2017,06,23,05,27,9.80
2017,06,23,05,28,9.80
2017,06,23,05,29,9.80
2017,06,23,05,30,9.90
2017,06,23,05,31,9.90
2017,06,23,05,32,9.90
2017,06,23,05,33,9.90
2017,06,23,05,34,10.00
2017,06,23,05,35,10.10
2017,06,23,05,36,10.10
2017,06,23,05,37,10.10
2017,06,23,05,38,10.10
2017,06,23,05,39,10.10
2017,06,23,05,40,10.10
2017,06,23,05,41,10.10
2017,06,23,05,42,10.10
2017,06,23,05,43,10.10
2017,06,23,05,44,10.10
2017,06,23,05,45,10.10
2017,06,23,05,46,10.20
2017,06,23,05,47,10.20
2017,06,23,05,48,10.20
2017,06,23,05,49,10.20
2017,06,23,05,50,10.20
2017,06,23,05,51,10.20
2017,06,23,05,52,10.30
2017,06,23,05,53,10.30
2017,06,23,05,54,10.30
2017,06,23,05,55,10.30
2017,06,23,05,56,10.40
2017,06,23,05,57,10.40
2017,06,23,05,58,10.50
2017,06,23,05,59,10.60
2017,06,23,06,00,10.60
2017,06,23,06,01,10.70
2017,06,23,06,02,10.70
2017,06,23,06,03,10.80
2017,06,23,06,04,10.80
2017,06,23,06,05,10.90
2017,06,23,06,06,10.90
2017,06,23,06,07,10.90
2017,06,23,06,08,10.90
2017,06,23,06,09,10.90
2017,06,23,06,10,11.10
2017,06,23,06,11,11.10
2017,06,23,06,12,11.20
2017,06,23,06,13,11.20
2017,06,23,06,14,11.20
2017,06,23,06,15,11.30
2017,06,23,06,16,11.30
2017,06,23,06,17,11.40
2017,06,23,06,18,11.40
2017,06,23,06,19,11.50
2017,06,23,06,20,11.60
2017,06,23,06,21,11.70
2017,06,23,06,22,11.80
2017,06,23,06,23,11.90
2017,06,23,06,24,12.00
2017,06,23,06,25,12.20
2017,06,23,06,26,12.30
2017,06,23,06,27,12.50
2017,06,23,06,28,12.60
2017,06,23,06,29,12.70
2017,06,23,06,30,12.80
2017,06,23,06,31,12.90
2017,06,23,06,32,12.90
2017,06,23,06,33,13.00
2017,06,23,06,34,13.10
2017,06,23,06,35,13.10
2017,06,23,06,36,13.20
2017,06,23,06,37,13.20
2017,06,23,06,38,13.20
2017,06,23,06,39,13.30
2017,06,23,06,40,13.30
2017,06,23,06,41,13.30
2017,06,23,06,42,13.30
2017,06,23,06,43,13.30
2017,06,23,06,44,13.30
2017,06,23,06,45,13.30
2017,06,23,06,46,13.30
2017,06,23,06,47,13.30
2017,06,23,06,48,13.30
2017,06,23,06,49,13.40
2017,06,23,06,50,13.40
2017,06,23,06,51,13.40
2017,06,23,06,52,13.50
2017,06,23,06,53,13.50
2017,06,23,06,54,13.60
2017,06,23,06,55,13.60
2017,06,23,06,56,13.60
2017,06,23,06,57,13.60
2017,06,23,06,58,13.60
2017,06,23,06,59,13.60
2017,06,23,07,00,13.70
2017,06,23,07,01,13.70
2017,06,23,07,02,13.70
2017,06,23,07,03,13.60
2017,06,23,07,04,13.60
2017,06,23,07,05,13.60
2017,06,23,07,06,13.70
2017,06,23,07,07,13.70
2017,06,23,07,08,13.70
2017,06,23,07,09,13.80
2017,06,23,07,10,13.80
2017,06,23,07,11,13.90
2017,06,23,07,12,13.90
2017,06,23,07,13,13.90
2017,06,23,07,14,13.90
2017,06,23,07,15,13.90
2017,06,23,07,16,13.90
2017,06,23,07,17,13.90
2017,06,23,07,18,13.90
2017,06,23,07,19,13.90
2017,06,23,07,20,13.90
2017,06,23,07,21,14.00
2017,06,23,07,22,14.00
2017,06,23,07,23,14.10
2017,06,23,07,24,14.10
2017,06,23,07,25,14.20
2017,06,23,07,26,14.20
2017,06,23,07,27,14.30
2017,06,23,07,28,14.40
2017,06,23,07,29,14.50
2017,06,23,07,30,14.60
2017,06,23,07,31,14.70
2017,06,23,07,32,14.80
2017,06,23,07,33,14.90
2017,06,23,07,34,15.00
2017,06,23,07,35,15.10
2017,06,23,07,36,15.20
2017,06,23,07,37,15.20
2017,06,23,07,38,15.20
2017,06,23,07,39,15.20
2017,06,23,07,40,15.30
2017,06,23,07,41,15.30
2017,06,23,07,42,15.30
2017,06,23,07,43,15.40
2017,06,23,07,44,15.40
2017,06,23,07,45,15.50
2017,06,23,07,46,15.60
2017,06,23,07,47,15.60
2017,06,23,07,48,15.70
2017,06,23,07,49,15.70
2017,06,23,07,50,15.80
2017,06,23,07,51,15.80
2017,06,23,07,52,15.80
2017,06,23,07,53,15.80
2017,06,23,07,54,15.80
2017,06,23,07,55,15.90
2017,06,23,07,56,15.90
2017,06,23,07,57,15.90
2017,06,23,07,58,15.90
2017,06,23,07,59,15.90
2017,06,23,08,00,15.90
2017,06,23,08,01,15.90
2017,06,23,08,02,15.90
2017,06,23,08,03,15.90
2017,06,23,08,04,16.10
2017,06,23,08,05,16.10
2017,06,23,08,06,16.10
2017,06,23,08,07,16.20
2017,06,23,08,08,16.20
2017,06,23,08,09,16.30
2017,06,23,08,10,16.40
2017,06,23,08,11,16.40
2017,06,23,08,12,16.50
2017,06,23,08,13,16.60
2017,06,23,08,14,16.70
2017,06,23,08,15,16.70
2017,06,23,08,16,16.70
2017,06,23,08,17,16.70
2017,06,23,08,18,16.70
2017,06,23,08,19,16.70
2017,06,23,08,20,16.80
2017,06,23,08,21,16.80
2017,06,23,08,22,16.80
2017,06,23,08,23,16.90
2017,06,23,08,24,16.90
2017,06,23,08,25,16.90
2017,06,23,08,26,17.00
2017,06,23,08,27,17.10
2017,06,23,08,28,17.10
2017,06,23,08,29,17.20
2017,06,23,08,30,17.30
2017,06,23,08,31,17.30
2017,06,23,08,32,17.30
2017,06,23,08,33,17.30
2017,06,23,08,34,17.30
2017,06,23,08,35,17.30
2017,06,23,08,36,17.30
2017,06,23,08,37,17.40
2017,06,23,08,38,17.40
2017,06,23,08,39,17.50
2017,06,23,08,40,17.60
2017,06,23,08,41,17.70
2017,06,23,08,42,17.70
2017,06,23,08,43,17.70
2017,06,23,08,44,17.80
2017,06,23,08,45,17.90
2017,06,23,08,46,17.90
2017,06,23,08,47,17.90
2017,06,23,08,48,17.90
2017,06,23,08,49,17.90
2017,06,23,08,50,17.90
2017,06,23,08,51,17.90
2017,06,23,08,52,18.00
2017,06,23,08,53,18.10
2017,06,23,08,54,18.20
2017,06,23,08,55,18.20
2017,06,23,08,56,18.20
2017,06,23,08,57,18.30
2017,06,23,08,58,18.20
2017,06,23,08,59,18.20
2017,06,23,09,00,18.20
2017,06,23,09,01,18.20
2017,06,23,09,02,18.20
2017,06,23,09,03,18.20
2017,06,23,09,04,18.20
2017,06,23,09,05,18.20
2017,06,23,09,06,18.20
2017,06,23,09,07,18.20
2017,06,23,09,08,18.10
2017,06,23,09,09,18.10
2017,06,23,09,10,18.20
2017,06,23,09,11,18.20
2017,06,23,09,12,18.20
2017,06,23,09,13,18.20
2017,06,23,09,14,18.20
2017,06,23,09,15,18.20
2017,06,23,09,16,18.20
2017,06,23,09,17,18.20
2017,06,23,09,18,18.20
2017,06,23,09,19,18.20
2017,06,23,09,20,18.20
2017,06,23,09,21,18.20
2017,06,23,09,22,18.20
2017,06,23,09,23,18.20
2017,06,23,09,24,18.20
2017,06,23,09,25,18.20
2017,06,23,09,26,18.30
2017,06,23,09,27,18.30
2017,06,23,09,28,18.40
2017,06,23,09,29,18.50
2017,06,23,09,30,18.50
2017,06,23,09,31,18.50
2017,06,23,09,32,18.50
2017,06,23,09,33,18.40
2017,06,23,09,34,18.40
2017,06,23,09,35,18.40
2017,06,23,09,36,18.40
2017,06,23,09,37,18.40
2017,06,23,09,38,18.40
2017,06,23,09,39,18.40
2017,06,23,09,40,18.40
2017,06,23,09,41,18.50
2017,06,23,09,42,18.50
2017,06,23,09,43,18.40
2017,06,23,09,44,18.40
2017,06,23,09,45,18.40
2017,06,23,09,46,18.30
2017,06,23,09,47,18.30
2017,06,23,09,48,18.30
2017,06,23,09,49,18.40
2017,06,23,09,50,18.40
2017,06,23,09,51,18.50
2017,06,23,09,52,18.50
2017,06,23,09,53,18.50
2017,06,23,09,54,18.50
2017,06,23,09,55,18.50
2017,06,23,09,56,18.60
2017,06,23,09,57,18.60
2017,06,23,09,58,18.60
2017,06,23,09,59,18.70
2017,06,23,10,00,18.70
2017,06,23,10,01,18.80
2017,06,23,10,02,18.90
2017,06,23,10,03,19.00
2017,06,23,10,04,19.10
2017,06,23,10,05,19.10
2017,06,23,10,06,19.10
2017,06,23,10,07,19.00
2017,06,23,10,08,19.00
2017,06,23,10,09,19.10
2017,06,23,10,10,19.10
2017,06,23,10,11,19.10
2017,06,23,10,12,19.10
2017,06,23,10,13,19.10
2017,06,23,10,14,19.10
2017,06,23,10,15,19.10
2017,06,23,10,16,19.00
2017,06,23,10,17,18.90
2017,06,23,10,18,18.90
2017,06,23,10,19,18.90
2017,06,23,10,20,19.00
2017,06,23,10,21,19.10
2017,06,23,10,22,19.10
2017,06,23,10,23,19.30
2017,06,23,10,24,19.30
2017,06,23,10,25,19.30
2017,06,23,10,26,19.40
2017,06,23,10,27,19.40
2017,06,23,10,28,19.40
2017,06,23,10,29,19.30
2017,06,23,10,30,19.40
2017,06,23,10,31,19.40
2017,06,23,10,32,19.40
2017,06,23,10,33,19.40
2017,06,23,10,34,19.50
2017,06,23,10,35,19.60
2017,06,23,10,36,19.60
2017,06,23,10,37,19.70
2017,06,23,10,38,19.70
2017,06,23,10,39,19.60
2017,06,23,10,40,19.60
2017,06,23,10,41,19.70
2017,06,23,10,42,19.70
2017,06,23,10,43,19.80
2017,06,23,10,44,19.90
2017,06,23,10,45,19.90
2017,06,23,10,46,19.90
2017,06,23,10,47,19.90
2017,06,23,10,48,19.90
2017,06,23,10,49,19.90
2017,06,23,10,50,20.00
2017,06,23,10,51,20.10
2017,06,23,10,52,20.10
2017,06,23,10,53,20.10
2017,06,23,10,54,20.20
2017,06,23,10,55,20.20
2017,06,23,10,56,20.20
2017,06,23,10,57,20.20
2017,06,23,10,58,20.20
2017,06,23,10,59,20.20
2017,06,23,11,00,20.20
2017,06,23,11,01,20.20
2017,06,23,11,02,20.20
2017,06,23,11,03,20.20
2017,06,23,11,04,20.30
2017,06,23,11,05,20.40
2017,06,23,11,06,20.40
2017,06,23,11,07,20.40
2017,06,23,11,08,20.40
2017,06,23,11,09,20.40
2017,06,23,11,10,20.40
2017,06,23,11,11,20.40
2017,06,23,11,12,20.50
2017,06,23,11,13,20.50
2017,06,23,11,14,20.60
2017,06,23,11,15,20.70
2017,06,23,11,16,20.70
2017,06,23,11,17,20.80
2017,06,23,11,18,20.80
2017,06,23,11,19,20.90
2017,06,23,11,20,21.00
2017,06,23,11,21,21.00
2017,06,23,11,22,21.10
2017,06,23,11,23,21.10
2017,06,23,11,24,21.00
2017,06,23,11,25,21.00
2017,06,23,11,26,20.90
2017,06,23,11,27,20.90
2017,06,23,11,28,20.80
2017,06,23,11,29,20.70
2017,06,23,11,30,20.60
2017,06,23,11,31,20.60
2017,06,23,11,32,20.60
2017,06,23,11,33,20.50
2017,06,23,11,34,20.50
2017,06,23,11,35,20.60
2017,06,23,11,36,20.60
2017,06,23,11,37,20.60
2017,06,23,11,38,20.60
2017,06,23,11,39,20.70
2017,06,23,11,40,20.70
2017,06,23,11,41,20.80
2017,06,23,11,42,20.90
2017,06,23,11,43,20.90
2017,06,23,11,44,20.80
2017,06,23,11,45,20.80
2017,06,23,11,46,20.70
2017,06,23,11,47,20.60
2017,06,23,11,48,20.60
2017,06,23,11,49,20.60
2017,06,23,11,50,20.60
2017,06,23,11,51,20.60
2017,06,23,11,52,20.70
2017,06,23,11,53,20.80
2017,06,23,11,54,20.90
2017,06,23,11,55,20.90
2017,06,23,11,56,20.80
2017,06,23,11,57,20.80
2017,06,23,11,58,20.90
2017,06,23,11,59,20.90
2017,06,23,12,00,21.00
2017,06,23,12,01,21.10
2017,06,23,12,02,21.20
2017,06,23,12,03,21.30
2017,06,23,12,04,21.30
2017,06,23,12,05,21.30
2017,06,23,12,06,21.40
2017,06,23,12,07,21.50
2017,06,23,12,08,21.60
2017,06,23,12,09,21.60
2017,06,23,12,10,21.60
2017,06,23,12,11,21.60
2017,06,23,12,12,21.60
2017,06,23,12,13,21.60
2017,06,23,12,14,21.60
2017,06,23,12,15,21.60
2017,06,23,12,16,21.60
2017,06,23,12,17,21.60
2017,06,23,12,18,21.60
2017,06,23,12,19,21.60
2017,06,23,12,20,21.50
2017,06,23,12,21,21.50
2017,06,23,12,22,21.60
2017,06,23,12,23,21.60
2017,06,23,12,24,21.60
2017,06,23,12,25,21.60
2017,06,23,12,26,21.60
2017,06,23,12,27,21.60
2017,06,23,12,28,21.60
2017,06,23,12,29,21.60
2017,06,23,12,30,21.60
2017,06,23,12,31,21.70
2017,06,23,12,32,21.70
2017,06,23,12,33,21.70
2017,06,23,12,34,21.70
2017,06,23,12,35,21.80
2017,06,23,12,36,21.70
2017,06,23,12,37,21.70
2017,06,23,12,38,21.70
2017,06,23,12,39,21.70
2017,06,23,12,40,21.60
2017,06,23,12,41,21.60
2017,06,23,12,42,21.60
2017,06,23,12,43,21.60
2017,06,23,12,44,21.60
2017,06,23,12,45,21.60
2017,06,23,12,46,21.60
2017,06,23,12,47,21.60
2017,06,23,12,48,21.60
2017,06,23,12,49,21.60
2017,06,23,12,50,21.60
2017,06,23,12,51,21.70
2017,06,23,12,52,21.80
2017,06,23,12,53,21.90
2017,06,23,12,54,22.00
2017,06,23,12,55,22.10
2017,06,23,12,56,22.10
2017,06,23,12,57,22.20
2017,06,23,12,58,22.20
2017,06,23,12,59,22.20
2017,06,23,13,00,22.10
2017,06,23,13,01,21.90
2017,06,23,13,02,21.90
2017,06,23,13,03,22.00
2017,06,23,13,04,22.10
2017,06,23,13,05,22.20
2017,06,23,13,06,22.20
2017,06,23,13,07,22.20
2017,06,23,13,08,22.20
2017,06,23,13,09,22.30
2017,06,23,13,10,22.30
2017,06,23,13,11,22.30
2017,06,23,13,12,22.30
2017,06,23,13,13,22.30
2017,06,23,13,14,22.40
2017,06,23,13,15,22.30
2017,06,23,13,16,22.40
2017,06,23,13,17,22.40
2017,06,23,13,18,22.50
2017,06,23,13,19,22.50
2017,06,23,13,20,22.50
2017,06,23,13,21,22.60
2017,06,23,13,22,22.70
2017,06,23,13,23,22.80
2017,06,23,13,24,22.90
2017,06,23,13,25,22.90
2017,06,23,13,26,22.90
2017,06,23,13,27,22.80
2017,06,23,13,28,22.80
2017,06,23,13,29,22.80
2017,06,23,13,30,22.70
2017,06,23,13,31,22.70
2017,06,23,13,32,22.60
2017,06,23,13,33,22.60
2017,06,23,13,34,22.60
2017,06,23,13,35,22.70
2017,06,23,13,36,22.80
2017,06,23,13,37,22.90
2017,06,23,13,38,23.10
2017,06,23,13,39,23.20
2017,06,23,13,40,23.10
2017,06,23,13,41,22.90
2017,06,23,13,42,22.80
2017,06,23,13,43,22.70
2017,06,23,13,44,22.80
2017,06,23,13,45,22.70
2017,06,23,13,46,22.60
2017,06,23,13,47,22.60
2017,06,23,13,48,22.60
2017,06,23,13,49,22.50
2017,06,23,13,50,22.50
2017,06,23,13,51,22.60
2017,06,23,13,52,22.60
2017,06,23,13,53,22.60
2017,06,23,13,54,22.70
2017,06,23,13,55,22.70
2017,06,23,13,56,22.70
2017,06,23,13,57,22.80
2017,06,23,13,58,22.80
2017,06,23,13,59,22.80
2017,06,23,14,00,22.70
2017,06,23,14,01,22.70
2017,06,23,14,02,22.70
2017,06,23,14,03,22.70
2017,06,23,14,04,22.70
2017,06,23,14,05,22.70
2017,06,23,14,06,22.80
2017,06,23,14,07,22.70
2017,06,23,14,08,22.70
2017,06,23,14,09,22.80
2017,06,23,14,10,22.90
2017,06,23,14,11,22.90
2017,06,23,14,12,23.00
2017,06,23,14,13,23.10
2017,06,23,14,14,23.20
2017,06,23,14,15,23.20
2017,06,23,14,16,23.10
2017,06,23,14,17,22.90
2017,06,23,14,18,22.90
2017,06,23,14,19,22.70
2017,06,23,14,20,22.60
2017,06,23,14,21,22.60
2017,06,23,14,22,22.60
2017,06,23,14,23,22.70
2017,06,23,14,24,22.80
2017,06,23,14,25,22.90
2017,06,23,14,26,23.00
2017,06,23,14,27,23.10
2017,06,23,14,28,23.20
2017,06,23,14,29,23.30
2017,06,23,14,30,23.30
2017,06,23,14,31,23.30
2017,06,23,14,32,23.20
2017,06,23,14,33,23.10
2017,06,23,14,34,23.00
2017,06,23,14,35,22.90
2017,06,23,14,36,22.80
2017,06,23,14,37,22.80
2017,06,23,14,38,22.80
2017,06,23,14,39,22.80
2017,06,23,14,40,22.80
2017,06,23,14,41,22.90
2017,06,23,14,42,22.90
2017,06,23,14,43,22.90
2017,06,23,14,44,23.00
2017,06,23,14,45,23.20
2017,06,23,14,46,23.20
2017,06,23,14,47,23.20
2017,06,23,14,48,23.20
2017,06,23,14,49,23.20
2017,06,23,14,50,23.30
2017,06,23,14,51,23.30
2017,06,23,14,52,23.30
2017,06,23,14,53,23.20
2017,06,23,14,54,23.20
2017,06,23,14,55,23.20
2017,06,23,14,56,23.10
2017,06,23,14,57,23.10
2017,06,23,14,58,23.20
2017,06,23,14,59,23.20
2017,06,23,15,00,23.30
2017,06,23,15,01,23.40
2017,06,23,15,02,23.60
2017,06,23,15,03,23.60
2017,06,23,15,04,23.70
2017,06,23,15,05,23.70
2017,06,23,15,06,23.70
2017,06,23,15,07,23.60
2017,06,23,15,08,23.60
2017,06,23,15,09,23.50
2017,06,23,15,10,23.40
2017,06,23,15,11,23.40
2017,06,23,15,12,23.40
2017,06,23,15,13,23.40
2017,06,23,15,14,23.30
2017,06,23,15,15,23.30
2017,06,23,15,16,23.30
2017,06,23,15,17,23.30
2017,06,23,15,18,23.30
2017,06,23,15,19,23.30
2017,06,23,15,20,23.50
2017,06,23,15,21,23.60
2017,06,23,15,22,23.70
2017,06,23,15,23,23.80
2017,06,23,15,24,23.90
2017,06,23,15,25,24.00
2017,06,23,15,26,24.10
2017,06,23,15,27,24.20
2017,06,23,15,28,24.20
2017,06,23,15,29,24.30
2017,06,23,15,30,24.30
2017,06,23,15,31,24.40
2017,06,23,15,32,24.40
2017,06,23,15,33,24.40
2017,06,23,15,34,24.30
2017,06,23,15,35,24.40
2017,06,23,15,36,24.30
2017,06,23,15,37,24.20
2017,06,23,15,38,24.20
2017,06,23,15,39,24.10
2017,06,23,15,40,24.10
2017,06,23,15,41,24.10
2017,06,23,15,42,23.90
2017,06,23,15,43,23.70
2017,06,23,15,44,23.70
2017,06,23,15,45,23.70
2017,06,23,15,46,23.70
2017,06,23,15,47,23.70
2017,06,23,15,48,23.70
2017,06,23,15,49,23.70
2017,06,23,15,50,23.70
2017,06,23,15,51,23.80
2017,06,23,15,52,23.80
2017,06,23,15,53,23.80
2017,06,23,15,54,23.90
2017,06,23,15,55,23.90
2017,06,23,15,56,23.90
2017,06,23,15,57,23.90
2017,06,23,15,58,23.90
2017,06,23,15,59,23.90
2017,06,23,16,00,23.90
2017,06,23,16,01,24.00
2017,06,23,16,02,24.10
2017,06,23,16,03,24.10
2017,06,23,16,04,24.10
2017,06,23,16,05,24.10
2017,06,23,16,06,24.10
2017,06,23,16,07,24.10
2017,06,23,16,08,24.20
2017,06,23,16,09,24.30
2017,06,23,16,10,24.30
2017,06,23,16,11,24.30
2017,06,23,16,12,24.40
2017,06,23,16,13,24.40
2017,06,23,16,14,24.50
2017,06,23,16,15,24.50
2017,06,23,16,16,24.50
2017,06,23,16,17,24.60
2017,06,23,16,18,24.60
2017,06,23,16,19,24.60
2017,06,23,16,20,24.70
2017,06,23,16,21,24.70
2017,06,23,16,22,24.80
2017,06,23,16,23,24.90
2017,06,23,16,24,24.90
2017,06,23,16,25,24.90
2017,06,23,16,26,24.90
2017,06,23,16,27,24.90
2017,06,23,16,28,25.00
2017,06,23,16,29,24.90
2017,06,23,16,30,24.90
2017,06,23,16,31,24.90
2017,06,23,16,32,24.90
2017,06,23,16,33,24.90
2017,06,23,16,34,24.90
2017,06,23,16,35,24.90
2017,06,23,16,36,25.00
2017,06,23,16,37,25.10
2017,06,23,16,38,25.10
2017,06,23,16,39,25.20
2017,06,23,16,40,25.30
2017,06,23,16,41,25.30
2017,06,23,16,42,25.30
2017,06,23,16,43,25.30
2017,06,23,16,44,25.30
2017,06,23,16,45,25.30
2017,06,23,16,46,25.20
2017,06,23,16,47,25.20
2017,06,23,16,48,25.20
2017,06,23,16,49,25.10
2017,06,23,16,50,24.90
2017,06,23,16,51,24.90
2017,06,23,16,52,24.90
2017,06,23,16,53,24.80
2017,06,23,16,54,24.80
2017,06,23,16,55,24.70
2017,06,23,16,56,24.70
2017,06,23,16,57,24.80
2017,06,23,16,58,24.80
2017,06,23,16,59,24.70
2017,06,23,17,00,24.70
2017,06,23,17,01,24.60
2017,06,23,17,02,24.70
2017,06,23,17,03,24.60
2017,06,23,17,04,24.60
2017,06,23,17,05,24.70
2017,06,23,17,06,24.70
2017,06,23,17,07,24.70
2017,06,23,17,08,24.80
2017,06,23,17,09,24.80
2017,06,23,17,10,24.80
2017,06,23,17,11,24.90
2017,06,23,17,12,24.90
2017,06,23,17,13,24.90
2017,06,23,17,14,25.00
2017,06,23,17,15,25.00
2017,06,23,17,16,25.10
2017,06,23,17,17,25.10
2017,06,23,17,18,25.10
2017,06,23,17,19,25.10
2017,06,23,17,20,25.10
2017,06,23,17,21,25.20
2017,06,23,17,22,25.20
2017,06,23,17,23,25.30
2017,06,23,17,24,25.30